Regional Weather Roundup
Issued by NWS Binghamton, NY

Home | Current Version | Previous Version | Text Only | Print | Product List | Glossary On
Versions: 1 2 3 4 5 6 7 8 9 10 11 12 13 14 15 16 17 18 19 20 21 22 23 24 25 26 27 28
000
ASUS41 KBGM 260510
RWRBGM

REGIONAL WEATHER ROUNDUP
NATIONAL WEATHER SERVICE BINGHAMTON NY
100 AM EDT FRI AUG 26 2016

Note: "fair" indicates few or no clouds below 12,000 feet with no
significant weather and/or obstructions to visibility.

* = Station(s) that does not report precipitation, such as rain,
snow, etc, also no thunder or fog.

NYZ009-015>018-022>025-036-037-044>046-055>057-062-260600
...Central New York...

CITY           SKY/WX    TMP DP  RH WIND       PRES   REMARKS
Binghamton     FAIR      71  69  93 S6        29.99F
Dansville      CLOUDY    74  70  87 E8        29.95F
Elmira         CLOUDY    74  71  91 SW7       29.95S
Ithaca         LGT RAIN  71  70  96 NW9G16    29.98S
Hamilton       CLOUDY    73  70  88 SE3       29.96F
Hornell        PTCLDY    72  70  94 CALM      30.01F
Monticello     CLOUDY    66  66 100 CALM      30.04S VSB 1/2
Norwich        CLOUDY    72  70  94 CALM      29.98S
Oneonta        LGT RAIN  72  72 100 CALM      30.01S
Penn Yan       CLOUDY    73  70  90 S7        29.96F
Rome           CLOUDY    73  72  96 SE3       29.94S
Sidney         MOCLDY    70  70 100 CALM      29.98S FOG
Syracuse       CLOUDY    74  71  91 SE3       29.90F
$$

PAZ038>040-043-044-047-048-072-260600
...Northeast Pennsylvania...

CITY           SKY/WX    TMP DP  RH WIND       PRES   REMARKS
Hazleton       FAIR      73  72  94 CALM      30.06F
Scranton       FAIR      72  70  93 CALM      29.99F
$$
&&
KEY
WCI = Wind Chill Index
VSB = Visibility
HX  = Heat Index
$$




USA.gov is the U.S. government's official web portal to all federal, state and local government web resources and services.